This demonstration page uses our WeatherBlox Daily Observations layout. Learn more.

Left ArrowRight Arrow

Hourly Observations for July 28, 2021

Temp ( °F °C ) Dew Point ( °F °C ) Humidity (%) Winds ( mph kmh ) Pressure ( in mb ) Visibility ( mi km ) Precip ( " mm )
12:15 am 00:15 Clear 72 22 63 17 73 73 N N/A 29.99 1016 10 16 N/A
12:35 am 00:35 Clear 72 22 63 17 73 73 W 3 6 29.99 1016 10 16 N/A
12:55 am 00:55 Clear 70 21 63 17 78 78 N N/A 29.99 1016 10 16 N/A
1:15 am 01:15 Clear 70 21 63 17 78 78 W 3 6 29.99 1016 10 16 N/A
1:35 am 01:35 Clear 70 21 63 17 78 78 N N/A 29.98 1015 10 16 N/A
1:55 am 01:55 Clear 70 21 63 17 78 78 N N/A 29.98 1015 10 16 N/A
2:15 am 02:15 Clear 70 21 63 17 78 78 N N/A 29.99 1016 10 16 N/A
2:35 am 02:35 Clear 70 21 63 17 78 78 N N/A 29.97 1015 10 16 N/A
2:55 am 02:55 Clear 70 21 63 17 78 78 N N/A 29.97 1015 10 16 N/A
3:15 am 03:15 Clear 70 21 61 16 73 73 N N/A 29.97 1015 10 16 N/A
3:35 am 03:35 Clear 70 21 63 17 78 78 N N/A 29.98 1015 10 16 N/A
3:55 am 03:55 Clear 70 21 61 16 73 73 N N/A 29.98 1015 10 16 N/A
4:15 am 04:15 Clear 70 21 61 16 73 73 N N/A 29.99 1016 10 16 N/A
4:35 am 04:35 Clear 70 21 63 17 78 78 N N/A 29.99 1016 10 16 N/A
4:55 am 04:55 Clear 70 21 61 16 73 73 N N/A 29.99 1016 10 16 N/A
5:15 am 05:15 Clear 73 23 61 16 65 65 N 3 6 30.00 1016 10 16 N/A
5:35 am 05:35 Clear 72 22 61 16 69 69 N N/A 30.00 1016 10 16 N/A
5:55 am 05:55 Clear 72 22 61 16 69 69 N N/A 30.01 1016 10 16 N/A
6:15 am 06:15 Sunny 72 22 61 16 69 69 N N/A 30.01 1016 10 16 N/A
6:35 am 06:35 Sunny 72 22 61 16 69 69 N N/A 30.01 1016 10 16 N/A
6:55 am 06:55 Sunny 72 22 63 17 73 73 N N/A 30.01 1016 10 16 N/A
7:15 am 07:15 Sunny 72 22 63 17 73 73 N 5 7 30.01 1016 10 16 N/A
7:35 am 07:35 Sunny 72 22 63 17 73 73 NNW 7 11 30.01 1016 10 16 N/A
7:55 am 07:55 Sunny 73 23 63 17 69 69 NNW 6 9 30.02 1016 10 16 N/A
8:15 am 08:15 Sunny 77 25 63 17 61 61 NNW 9 15 30.01 1016 10 16 N/A
8:35 am 08:35 Sunny 77 25 63 17 61 61 N 10 17 30.01 1016 10 16 N/A
8:55 am 08:55 Sunny 79 26 63 17 58 58 N 10 17 30.01 1016 10 16 N/A
9:15 am 09:15 Sunny 79 26 63 17 58 58 N 8 13 30.02 1017 10 16 N/A
9:35 am 09:35 Sunny 81 27 63 17 54 54 NNW 7 11 30.02 1017 10 16 N/A
9:55 am 09:55 Sunny 81 27 64 18 58 58 NNW 8 13 30.01 1016 10 16 N/A
10:15 am 10:15 Sunny 81 27 64 18 58 58 NNW 10 17 30.01 1016 10 16 N/A
10:35 am 10:35 Sunny 82 28 64 18 55 55 N 9 15 30.01 1016 10 16 N/A
10:55 am 10:55 Sunny 82 28 64 18 55 55 NNW 10 17 30.01 1016 10 16 N/A
11:15 am 11:15 Sunny 84 29 63 17 48 48 N 9 15 30.01 1016 10 16 N/A
11:35 am 11:35 Sunny 84 29 63 17 48 48 NNW 7 11 30.01 1016 10 16 N/A
11:55 am 11:55 Sunny 86 30 63 17 46 46 NNE 7 11 30.00 1016 10 16 N/A
12:15 pm 12:15 Sunny 86 30 63 17 46 46 N 6 9 30.00 1016 10 16 N/A
12:35 pm 12:35 Sunny 86 30 63 17 46 46 NNW 8 13 30.00 1016 10 16 N/A
12:55 pm 12:55 Sunny 86 30 63 17 46 46 N 8 13 30.00 1016 10 16 N/A
1:15 pm 13:15 Sunny 88 31 63 17 43 43 NNE 8 13 29.99 1015 10 16 N/A
1:35 pm 13:35 Partly Cloudy 88 31 63 17 43 43 NNE 7 11 29.99 1015 10 16 N/A
1:55 pm 13:55 Partly Cloudy 88 31 64 18 46 46 WNW 6 9 29.99 1015 10 16 N/A
2:15 pm 14:15 Partly Cloudy 88 31 63 17 43 43 N 3 6 29.98 1015 10 16 N/A
2:35 pm 14:35 Partly Cloudy 88 31 63 17 43 43 N 8 13 29.98 1015 10 16 N/A
2:55 pm 14:55 Partly Cloudy 88 31 63 17 43 43 NNE 6 9 29.98 1015 10 16 N/A
3:15 pm 15:15 Partly Cloudy 90 32 63 17 41 41 WNW 5 7 29.98 1015 10 16 N/A
3:35 pm 15:35 Mostly Cloudy 88 31 63 17 43 43 NE 7 11 29.97 1015 10 16 N/A
3:55 pm 15:55 Mostly Cloudy 88 31 63 17 43 43 N 5 7 29.96 1014 10 16 N/A
4:15 pm 16:15 Partly Cloudy 88 31 63 17 43 43 NE 8 13 29.96 1014 10 16 N/A
4:35 pm 16:35 Partly Cloudy 88 31 63 17 43 43 N 8 13 29.96 1014 10 16 N/A
4:55 pm 16:55 Partly Cloudy 90 32 63 17 41 41 N N/A 29.94 1014 10 16 N/A
5:15 pm 17:15 Partly Cloudy 90 32 63 17 41 41 NE 3 6 29.95 1014 10 16 N/A
5:35 pm 17:35 Partly Cloudy 88 31 63 17 43 43 ENE 9 15 29.95 1014 10 16 N/A
5:55 pm 17:55 Mostly Cloudy 88 31 63 17 43 43 NE 6 9 29.95 1014 10 16 N/A
6:15 pm 18:15 Partly Cloudy 88 31 63 17 43 43 ESE 3 6 29.95 1014 10 16 N/A
6:35 pm 18:35 Mostly Cloudy 88 31 63 17 43 43 ENE 3 6 29.94 1014 10 16 N/A
6:55 pm 18:55 Cloudy 88 31 63 17 43 43 ENE 5 7 29.94 1014 10 16 N/A
7:15 pm 19:15 Cloudy 86 30 63 17 46 46 ENE 3 6 29.94 1014 10 16 N/A
7:35 pm 19:35 Cloudy 86 30 63 17 46 46 N N/A 29.94 1014 10 16 N/A
7:55 pm 19:55 Cloudy 86 30 63 17 46 46 ESE 5 7 29.95 1014 10 16 N/A
8:15 pm 20:15 Cloudy 84 29 64 18 51 51 SW 3 6 29.95 1014 10 16 N/A
8:35 pm 20:35 Cloudy 84 29 64 18 51 51 N N/A 29.95 1014 10 16 N/A
8:55 pm 20:55 Cloudy 82 28 64 18 55 55 N N/A 29.96 1015 10 16 N/A
9:15 pm 21:15 Partly Cloudy 81 27 66 19 62 62 SSW 6 9 29.97 1015 10 16 N/A
9:35 pm 21:35 Mostly Cloudy 79 26 68 20 70 70 NNE 6 9 29.98 1015 10 16 N/A
9:55 pm 21:55 Partly Cloudy 79 26 68 20 70 70 N 7 11 29.99 1016 10 16 N/A
10:15 pm 22:15 Clear 77 25 68 20 74 74 NNW 6 9 30.00 1016 10 16 N/A
10:35 pm 22:35 Mostly Cloudy 77 25 68 20 74 74 N 3 6 30.02 1017 10 16 N/A
10:55 pm 22:55 Cloudy with Heavy Rain 75 24 70 21 83 83 ESE 13 20 30.02 1016 4 6 0.06 1.52
11:15 pm 23:15 Cloudy with Light Rain 72 22 70 21 94 94 ESE 8 13 30.03 1017 10 16 N/A
11:35 pm 23:35 Cloudy 72 22 70 21 94 94 N N/A 30.03 1017 10 16 N/A
11:55 pm 23:55 Mostly Cloudy 70 21 68 20 94 94 N N/A 30.03 1017 10 16 N/A

Powered by AerisWeather